This demonstration page uses our WeatherBlox Daily Observations layout. Learn more.

Left ArrowRight Arrow

Hourly Observations for November 10, 2022

Temp ( °F °C ) Dew Point ( °F °C ) Humidity (%) Winds ( mph kmh ) Pressure ( in mb ) Visibility ( mi km ) Precip ( " mm )
12:03 am 00:03 Cloudy 66 19 61 16 83 83 S 28 44 29.57 1001 10 16 0.00 0.00
12:24 am 00:24 Cloudy 66 19 61 16 83 83 S 24 39 29.57 1001 10 16 0.00 0.00
12:56 am 00:56 Cloudy 67 19.4 60 15.6 79 79 S 26 43 29.58 1002 10 16 0.00 0.00
1:31 am 01:31 Cloudy with Heavy Rain 54 12 52 11 94 94 NW 28 44 29.66 1004 3 5 0.12 3.05
1:38 am 01:38 Cloudy with Light Rain 45 7 41 5 87 87 NW 25 41 29.73 1007 6 10 0.12 3.05
1:48 am 01:48 Cloudy with Light Rain 39 4 37 3 93 93 NW 25 41 29.77 1008 10 16 0.12 3.05
1:56 am 01:56 Cloudy 38 3.3 37 2.8 97 97 NW 24 39 29.71 1006 10 16 0.12 3.05
2:37 am 02:37 Cloudy 36 2 34 1 93 93 NNW 22 35 29.83 1010 10 16 0.01 0.13
2:56 am 02:56 Cloudy 35 1.7 33 0.6 92 92 NNW 20 31 29.75 1007 10 16 0.01 0.13
3:07 am 03:07 Cloudy 34 1 34 1 100 100 NNW 15 24 29.85 1011 10 16 0.00 0.00
3:56 am 03:56 Cloudy 35 1.7 33 0.6 92 92 NW 16 26 29.80 1009 10 16 0.00 0.00
4:43 am 04:43 Cloudy 34 1 30 -1 86 86 NW 22 35 29.91 1013 10 16 0.00 0.00
4:56 am 04:56 Cloudy 34 1.1 30 -1.1 85 85 NW 17 28 29.84 1011 10 16 0.00 0.00
5:56 am 05:56 Cloudy 31 -0.6 28 -2.2 89 89 NW 17 28 29.88 1012 10 16 0.00 0.00
6:03 am 06:03 Cloudy 30 -1 28 -2 93 93 NNW 17 28 29.98 1015 10 16 0.00 0.00
6:10 am 06:10 Mostly Cloudy 30 -1 28 -2 93 93 NW 14 22 29.99 1016 10 16 0.00 0.00
6:56 am 06:56 Mostly Clear 31 -0.6 27 -2.8 85 85 NW 15 24 29.91 1013 10 16 0.00 0.00
7:56 am 07:56 Sunny 30 -1.1 26 -3.3 85 85 NW 9 15 29.93 1014 10 16 0.00 0.00
8:56 am 08:56 Mostly Sunny 32 0 26 -3.3 78 78 NW 20 31 29.98 1015 10 16 0.00 0.00
9:56 am 09:56 Mostly Sunny 35 1.7 27 -2.8 72 72 NW 17 28 30.00 1016 10 16 0.00 0.00
10:56 am 10:56 Sunny 37 2.8 26 -3.3 64 64 NW 15 24 30.02 1017 10 16 0.00 0.00
11:56 am 11:56 Sunny 39 3.9 25 -3.9 57 57 NNW 20 31 30.02 1017 10 16 0.00 0.00
12:56 pm 12:56 Sunny 41 5 26 -3.3 55 55 NNW 18 30 30.00 1016 10 16 0.00 0.00
1:56 pm 13:56 Sunny 42 5.6 26 -3.3 53 53 NNW 16 26 30.03 1017 10 16 0.00 0.00
2:56 pm 14:56 Sunny 41 5 25 -3.9 52 52 NNW 23 37 30.04 1017 10 16 0.00 0.00
3:56 pm 15:56 Sunny 40 4.4 24 -4.4 53 53 NNW 14 22 30.08 1019 10 16 0.00 0.00
4:56 pm 16:56 Sunny 37 2.8 23 -5 56 56 N 13 20 30.10 1019 10 16 0.00 0.00
5:56 pm 17:56 Clear 32 0 23 -5 69 69 N 13 20 30.14 1021 10 16 0.00 0.00
6:56 pm 18:56 Clear 29 -1.7 21 -6.1 72 72 N 18 30 30.16 1022 10 16 0.00 0.00
7:56 pm 19:56 Clear 26 -3.3 19 -7.2 74 74 N 17 28 30.19 1023 10 16 0.00 0.00
8:56 pm 20:56 Clear 24 -4.4 17 -8.3 74 74 N 13 20 30.23 1024 10 16 0.00 0.00
9:56 pm 21:56 Clear 23 -5 16 -8.9 74 74 NNW 10 17 30.26 1025 10 16 0.00 0.00
10:56 pm 22:56 Clear 22 -5.6 15 -9.4 74 74 N 10 17 30.26 1025 10 16 0.00 0.00
11:56 pm 23:56 Clear 20 -6.7 13 -10.6 74 74 NNW 10 17 30.27 1025 10 16 0.00 0.00

Powered by AerisWeather